Tracking 18957 objects as of 24-Jan-2018
HD Live streaming from Space Station
objects crossing your sky now

COSMOS 2390

Track COSMOS 2390 now!
10-day predictions
COSMOS 2390 is classified as:


NORAD ID: 27464
Int'l Code: 2002-036A
Perigee: 1,474.0 km
Apogee: 1,514.9 km
Inclination: 82.5 °
Period: 115.7 minutes
Semi major axis: 7865 km
RCS: 0.93 m2 (medium)
Launch date: July 8, 2002
Source: Commonwealth of Independent States (former USSR) (CIS)
Launch site: PLESETSK MISSILE AND SPACE COMPLEX (PKMTR)

Store-dump communications for Russian government and military.
aabbcc
Your satellite tracking list
Your tracking list is empty




NASA's NSSDC Master Catalog

Two Line Element Set (TLE):
1 27464U 02036A   18023.10864554  .00000021  00000-0  78820-4 0  9993
2 27464  82.4849 102.6022 0025990 125.0788 235.2747 12.44566026706288
Source of the keplerian elements: AFSPC